{"data":{"norad_id":64119,"epoch":"2026-09-20T01:47:38.838912Z","epoch_age_seconds":177250,"freshness":"STALE","line1":"1 64119U 25110Z   26263.07475508  .00016097  00000+0  48647-3 0  9999","line2":"2 64119  53.1594 196.0490 0001507  95.8469 264.2705 15.34403508 75756","mean_motion":15.34403508,"eccentricity":0.0001507,"inclination_deg":53.1594,"raan_deg":196.049,"arg_perigee_deg":95.8469,"mean_anomaly_deg":264.2705,"bstar":0.00048647,"rev_number":7575,"period_min":93.847543523734,"perigee_km":461.66190065877,"apogee_km":463.72372676462,"semimajor_km":6840.8298137117,"source":"CELESTRAK","updated_at":"2026-09-21T09:00:35.231458Z"}}